Seward, AK

4:46 AM AKDT on October 17, 2017 (GMT -0800)
Seward

Weather History for PAWD - July, 2013

Change the Weather History Date:

Tuesday, July 23, 2013

  Actual Average Record
Temperature  
Mean Temperature 57 °F -  
Max Temperature 66 °F 62 °F 83 °F (1953)
Min Temperature 50 °F 49 °F 43 °F (1970)
Degree Days  
Heating Degree Days 8    
Growing Degree Days 7 (Base 50)    
Moisture  
Dew Point 54 °F    
Average Humidity 85    
Maximum Humidity 97    
Minimum Humidity 73    
Precipitation  
Precipitation 0.00 in - - ()
Sea Level Pressure  
Sea Level Pressure 30.09 in    
Wind  
Wind Speed 2 mph (South)    
Max Wind Speed 7 mph    
Max Gust Speed -    
Visibility 10 miles    
Events      
Averages and records for this station are not official NWS values.
T = Trace of Precipitation, MM = Missing Value Source: NWS Daily Summary

Daily Weather History Graph

Daily Weather History Graph

Search for Another Location

Airport or City:

Trip Planner

Search our weather history database for the weather conditions in past years. The results will help you decide how hot, cold, wet, or windy it might be!

Date:

Astronomy

Jul. 23, 2013 Rise Set
Actual Time 5:17 AM AKDT 10:48 PM AKDT
Civil Twilight 4:08 AM AKDT 11:57 PM AKDT
Nautical Twilight 2:36 AM AKDT 1:31 AM AKDT
Astronomical Twilight Sun does not rise Sun does not rise
Moon 10:30 PM AKDT (7/23) 7:19 AM AKDT (7/23)
Length of Visible Light 19h 48m
Length of Day
17h 30m
Full, 98% of the Moon is Illuminated
Jul 23
Full
Jul 29
Last Quarter
Aug 6
New
Aug 14
First Quarter
Aug 20
Full

Hourly Weather History & Observations

Time (AKDT) Temp. Dew Point Humidity Pressure Visibility Wind Dir Wind Speed Gust Speed Precip Events Conditions
12:53 AM 53.1 °F 51.1 °F 93% 30.13 in 10.0 mi Calm Calm - N/A   Clear
1:53 AM 51.1 °F 48.9 °F 92% 30.13 in 10.0 mi Calm Calm - N/A   Clear
2:53 AM 51.1 °F 50.0 °F 96% 30.12 in 10.0 mi North 4.6 mph - N/A   Clear
3:53 AM 52.0 °F 50.0 °F 93% 30.12 in 10.0 mi NNW 5.8 mph - N/A   Clear
4:53 AM 52.0 °F 48.9 °F 89% 30.12 in 10.0 mi Calm Calm - N/A   Clear
5:53 AM 51.1 °F 48.0 °F 89% 30.12 in 10.0 mi Calm Calm - N/A   Clear
6:53 AM 50.0 °F 48.9 °F 96% 30.12 in 10.0 mi Calm Calm - N/A   Clear
7:53 AM 55.0 °F 52.0 °F 89% 30.12 in 10.0 mi Calm Calm - N/A   Clear
8:53 AM 57.9 °F 54.0 °F 87% 30.12 in 10.0 mi Calm Calm - N/A   Clear
9:53 AM 59.0 °F 54.0 °F 83% 30.11 in 10.0 mi Calm Calm - N/A   Clear
10:53 AM 60.1 °F 54.0 °F 80% 30.10 in 10.0 mi Variable 3.5 mph - N/A   Clear
11:53 AM 60.1 °F 55.0 °F 83% 30.09 in 10.0 mi Variable 4.6 mph - N/A   Clear
12:53 PM 61.0 °F 55.9 °F 83% 30.08 in 10.0 mi South 5.8 mph - N/A   Clear
1:53 PM 62.1 °F 55.9 °F 80% 30.08 in 10.0 mi SSE 6.9 mph - N/A   Clear
2:53 PM 64.0 °F 57.0 °F 78% 30.07 in 10.0 mi South 6.9 mph - N/A   Clear
3:53 PM 64.0 °F 57.0 °F 78% 30.06 in 10.0 mi South 5.8 mph - N/A   Clear
4:53 PM 64.9 °F 55.9 °F 73% 30.06 in 10.0 mi South 5.8 mph - N/A   Clear
5:53 PM 64.9 °F 55.9 °F 73% 30.05 in 10.0 mi South 4.6 mph - N/A   Clear
6:53 PM 64.9 °F 55.9 °F 73% 30.04 in 10.0 mi South 4.6 mph - N/A   Clear
7:53 PM 63.0 °F 55.9 °F 78% 30.04 in 10.0 mi SSE 4.6 mph - N/A   Clear
8:53 PM 62.1 °F 55.9 °F 80% 30.04 in 10.0 mi Calm Calm - N/A   Clear
9:53 PM 60.1 °F 55.9 °F 86% 30.05 in 10.0 mi Calm Calm - N/A   Clear
10:53 PM 57.0 °F 55.0 °F 93% 30.05 in 10.0 mi Calm Calm - N/A   Clear
11:53 PM 54.0 °F 53.1 °F 97% 30.04 in 10.0 mi Calm Calm - N/A   Clear